Regional Weather Roundup
Issued by NWS

Home | Current Version | Previous Version | Graphics & Text | Print | Product List | Glossary On
Versions: 1 2 3 4 5 6 7 8 9 10 11 12 13 14 15 16 17 18 19 20 21 22 23 24 25 26 27 28 29 30 31 32 33 34 35 36 37 38 39 40 41 42 43 44 45 46 47 48 49 50
000
ASUS43 KLSX 270110
RWRMO

WEATHER SUMMARY FOR MISSOURI
NATIONAL WEATHER SERVICE SPRINGFIELD MO
800 PM CDT THU MAY 26 2016

NOTE: "FAIR" INDICATES FEW OR NO CLOUDS BELOW 12,000 FEET WITH NO
       SIGNIFICANT WEATHER AND/OR OBSTRUCTIONS TO VISIBILITY.
       CURRENT SKY AND/OR WEATHER CONDITIONS ARE NOT AVAILABLE FOR
       CHILLICOTHE AND FARMINGTON.

MOZ001>031-035>038-043-044-053-054-270200-
...NORTHERN AND WESTERN MISSOURI...

CITY           SKY/WX    TMP DP  RH WIND       PRES   REMARKS
KANSAS CTY INT TSTM      63  58  83 NE20G25   29.83R
KANSAS C DTWN  CLOUDY    65  59  81 E14G24    29.83S
LEE`S SUMMIT   LGT RAIN  62  60  93 NE15      29.85R
ST JOSEPH      LGT RAIN  63  60  90 N15       29.84R
CHILLICOTHE      N/A     64  63  96 N6        29.93F
KIRKSVILLE     LGT RAIN  69  62  78 N12       29.90R

$$
MOZ066>068-077>081-088>096-101>105-270200-
...SOUTHWEST MISSOURI...

CITY           SKY/WX    TMP DP  RH WIND       PRES   REMARKS
SPRINGFIELD    LGT RAIN  72  61  68 S20       29.83S
JOPLIN         CLOUDY    73  60  63 S13G22    29.80F
BRANSON        CLOUDY    66  63  88 S14       29.87F

$$
MOZ032>034-039>042-045>050-055>058-069>072-270200-
...CENTRAL MISSOURI...

CITY           SKY/WX    TMP DP  RH WIND       PRES   REMARKS
COLUMBIA       TSTM      73  68  84 W8        29.82F
JEFFERSON CITY TSTM      72  66  81 W9        29.84S
ROLLA          CLOUDY    76  70  82 SE10      29.85S
SEDALIA        TSTM      68  64  87 MISG      29.88R
WHITEMAN AFB   TSTM      64  64 100 NE7       29.89R FOG

$$
MOZ051-052-059>065-270200-
...EAST CENTRAL MISSOURI...

CITY           SKY/WX    TMP DP  RH WIND       PRES   REMARKS
ST LOUIS INTL  CLOUDY    77  65  66 S9        29.88R
SPIRIT OF STL  CLOUDY    75  68  78 VRB3      29.86R
ST CHARLES     CLOUDY    75  67  76 E5        29.85S

$$
MOZ072>076-082>087-097>100-106>115-270200-
...SOUTH CENTRAL AND SOUTHEAST MISSOURI...

CITY           SKY/WX    TMP DP  RH WIND       PRES   REMARKS
CAPE GIRARDEAU CLOUDY    70  63  78 SE14      29.94R
FARMINGTON     CLOUDY    71  66  84 S10       29.93R
POPLAR BLUFF   LGT RAIN  70  65  84 S16G31    30.00R
WEST PLAINS    CLOUDY    76  65  68 S21G31    29.94R

$$




USA.gov is the U.S. government's official web portal to all federal, state and local government web resources and services.